Weatherford, Texas, United States (76085)
Lat: 32.76N, Lon: 97.8W
Wx Zone: TXZ117
Local Info
Past Weather Observations for Sunday, July 20, 2014

NOTE: This archive is for the closest National Weather Service station to Weatherford. Information may differ from the station used for current weather conditions.

Click here for Long-term Archive

Time Weather Temperature Dewpoint Humidity Pressure Winds Precip Visibility
23:53
Clear
79°F / 26°C 73°F / 23°C 84% 29.98 in
(1015 mb)
SE 9.2 mph
(SE 15 kph)
- 10SM
22:53
Clear
79°F / 26°C 72°F / 22°C 79% 29.98 in
(1015 mb)
SE 10.4 mph
(SE 17 kph)
- 10SM
21:53
Clear
81°F / 27°C 72°F / 22°C 74% 29.98 in
(1015 mb)
SE 8.1 mph
(SE 13 kph)
- 10SM
20:53
Clear
81°F / 27°C 72°F / 22°C 74% 29.95 in
(1014 mb)
SE 6.9 mph
(SE 11 kph)
- 10SM
19:53
Clear
84°F / 29°C 72°F / 22°C 66% 29.95 in
(1014 mb)
SE 8.1 mph
(SE 13 kph)
- 10SM
18:53
Clear
88°F / 31°C 70°F / 21°C 55% 29.92 in
(1013 mb)
SE 10.4 mph
(SE 17 kph)
- 10SM
17:53
Clear
91°F / 33°C 72°F / 22°C 52% 29.92 in
(1013 mb)
SE 9.2 mph
(SE 15 kph)
- 10SM
16:53
Clear
91°F / 33°C 72°F / 22°C 52% 29.92 in
(1013 mb)
ESE 12.7 mph
(ESE 20 kph)
- 10SM
15:53
Clear
91°F / 33°C 72°F / 22°C 52% 29.95 in
(1014 mb)
SSE 9.2 mph
(SSE 15 kph)
- 10SM
14:53
Partly Cloudy
91°F / 33°C 72°F / 22°C 52% 29.95 in
(1014 mb)
SE 12.7 mph
(SE 20 kph)
- 10SM
13:53
Partly Cloudy
90°F / 32°C 72°F / 22°C 55% 29.98 in
(1015 mb)
SSE 8.1 mph
(SSE 13 kph)
- 10SM
12:53
Partly Cloudy
88°F / 31°C 72°F / 22°C 59% 29.98 in
(1015 mb)
SE 12.7 mph
(SE 20 kph)
- 10SM
11:53
Clear
84°F / 29°C 72°F / 22°C 66% 30.01 in
(1016 mb)
S 9.2 mph
(S 15 kph)
- 10SM
10:53
Partly Cloudy
82°F / 28°C 70°F / 21°C 66% 30.01 in
(1016 mb)
S 9.2 mph
(S 15 kph)
- 10SM
10:28
Partly Cloudy
81°F / 27°C 70°F / 21°C 70% 30.01 in
(1016 mb)
S 8.1 mph
(S 13 kph)
- 10SM
09:53
Overcast
79°F / 26°C 70°F / 21°C 74% 30.04 in
(1017 mb)
S 9.2 mph
(S 15 kph)
- 9SM
09:16
Mostly Cloudy
75°F / 24°C 66°F / 19°C 74% 30.04 in
(1017 mb)
S 8.1 mph
(S 13 kph)
- 10SM
08:53
Clear
73°F / 23°C 66°F / 19°C 78% 30.06 in
(1018 mb)
SSE 8.1 mph
(SSE 13 kph)
- 10SM
07:53
Partly Cloudy
70°F / 21°C 64°F / 18°C 83% 30.04 in
(1017 mb)
S 8.1 mph
(S 13 kph)
- 10SM
06:53
Clear
68°F / 20°C 64°F / 18°C 88% 30.04 in
(1017 mb)
SE 6.9 mph
(SE 11 kph)
- 9SM
05:53
Clear
Fog And Mist
64°F / 18°C 64°F / 18°C 100% 30.01 in
(1016 mb)
SE 6.9 mph
(SE 11 kph)
- 5SM
04:53
Clear
64°F / 18°C 64°F / 18°C 100% 30.01 in
(1016 mb)
SE 4.6 mph
(SE 7 kph)
- 7SM
03:53
Clear
64°F / 18°C 63°F / 17°C 94% 29.98 in
(1015 mb)
SE 8.1 mph
(SE 13 kph)
- 7SM
02:53
Clear
64°F / 18°C 63°F / 17°C 94% 30.01 in
(1016 mb)
SE 8.1 mph
(SE 13 kph)
- 10SM
01:53
Clear
64°F / 18°C 63°F / 17°C 94% 30.01 in
(1016 mb)
SE 8.1 mph
(SE 13 kph)
- 10SM
00:53
Clear
66°F / 19°C 63°F / 17°C 88% 30.01 in
(1016 mb)
SE 6.9 mph
(SE 11 kph)
- 10SM
Time Weather Temperature Dewpoint Humidity Pressure Winds Precip Visibility


Weather for websites

WeatherForYou.com, LLC is not responsible for any damages or problems caused by this service. Current weather conditions are obtained from the closest station including government and personal stations which may have varying degrees of accuracy. Weather forecasts are derived from the NOAA NDFD. Like all things, this site belongs to Jesus Christ... He just trusts me to maintain it. If you have any questions or comments email webmaster@weatherforyou.com

Copyright © 2014, WeatherForYou.com LLC. All rights reserved.